Wind_Speed
31 34 35 37 36 35 36 38 38 38 37 38 43 43 43 38 38 41 40 39 38 39
30 32 33 36 35 34 33 33 33 32 32 32 35 40 36 39 36 39 37 38 36 36
30 30 29 33 32 31 30 29 29 25 25 28 31 29 29 33 38 37 36 35 33 34
30 30 28 30 30 30 29 27 24 18 21 25 20 18 23 25 30 37 34 33 33 32
28 30 29 28 30 28 27 25 22 18 19 23 19 15 10 20 16 27 28 28 28 31
29 29 30 28 28 27 27 24 22 22 19 22 23 25 24 2 9 16 29 28 28 26
28 28 29 29 29 27 25 23 24 23 21 22 23 24 24 16 8 6 11 18 19 20
28 27 26 28 29 27 26 23 22 22 19 23 25 28 24 15 10 10 11 13 15 17
28 26 26 30 27 26 25 23 21 19 21 24 26 28 21 14 9 12 7 3 6 7
26 27 26 27 25 27 27 25 22 19 20 22 24 28 22 17 15 13 11 7 4 5
25 28 26 27 25 25 27 28 24 21 24 24 23 26 23 13 10 11 11 12 9 8
23 26 25 27 26 24 25 27 24 21 23 23 23 22 25 21 17 13 12 5 6 7
21 22 24 26 24 23 22 27 24 22 26 25 26 26 23 22 20 19 17 11 11 11
21 21 21 23 22 23 22 26 25 25 27 28 30 27 26 24 24 21 20 17 15 12
Wind_Direction
332 329 326 325 322 318 313 310 302 305 306 301 292 286 267 261 259 259 252 244 245 249
333 329 325 326 322 318 316 311 306 303 320 307 298 280 275 255 253 251 253 248 245 249
339 331 330 329 326 322 320 316 311 307 327 324 288 280 274 252 248 245 249 251 251 252
344 342 336 336 335 329 325 325 320 320 338 329 317 278 276 262 251 242 242 244 248 246
346 347 344 339 340 343 336 334 332 338 341 336 340 357 326 231 216 230 231 227 232 228
347 347 349 348 349 345 347 346 347 349 344 342 348 335 2 325 168 185 208 207 211 225
345 346 345 347 351 348 350 353 357 358 2 354 355 357 358 357 54 70 156 184 201 213
345 346 347 347 349 350 352 351 352 2 4 358 2 6 2 10 16 45 102 143 163 188
347 351 350 351 353 353 355 4 4 9 5 352 357 360 8 6 13 9 37 325 164 195
351 353 354 355 357 3 5 2 2 4 356 354 350 354 0 3 11 350 345 11 326 345
354 351 353 356 0 3 4 4 4 1 356 352 352 347 0 17 354 351 343 9 349 315
355 349 354 354 359 3 360 6 8 8 4 2 2 354 357 6 6 358 26 345 323 322
354 350 353 352 356 358 357 2 5 7 8 9 6 2 9 8 5 3 8 8 353 340
1 358 353 356 3 0 1 0 5 4 5 8 7 10 14 11 6 5 4 9 2 356
Height
1473 1467 1461 1456 1450 1444 1437 1430 1426 1419 1413 1407 1401 1399 1399 1399 1400 1402 1407 1410 1413 1419
1471 1464 1457 1451 1445 1439 1433 1427 1421 1417 1410 1401 1394 1388 1389 1389 1391 1394 1397 1396 1405 1406
1469 1463 1456 1448 1441 1434 1428 1422 1417 1412 1405 1396 1388 1382 1379 1378 1382 1385 1387 1390 1392 1396
1466 1459 1452 1445 1438 1431 1424 1417 1412 1406 1401 1394 1383 1376 1372 1370 1373 1376 1378 1382 1385 1389
1463 1457 1450 1442 1435 1427 1420 1414 1407 1401 1395 1388 1381 1372 1368 1363 1363 1367 1370 1375 1378 1382
1460 1454 1447 1440 1432 1425 1418 1411 1404 1398 1392 1384 1378 1373 1365 1360 1358 1360 1364 1367 1370 1374
1458 1451 1445 1438 1431 1424 1417 1409 1402 1397 1391 1384 1377 1369 1367 1362 1356 1360 1358 1359 1363 1366
1456 1449 1443 1436 1429 1423 1416 1409 1402 1397 1391 1385 1379 1372 1367 1365 1362 1360 1352 1356 1359 1363
1453 1447 1441 1434 1428 1421 1415 1408 1401 1396 1391 1386 1380 1376 1370 1366 1361 1358 1355 1360 1360 1357
1451 1445 1440 1434 1427 1421 1414 1408 1402 1396 1391 1386 1381 1376 1370 1361 1346 1363 1357 1356 1355 1352
1450 1445 1439 1433 1427 1421 1415 1409 1402 1397 1392 1385 1378 1373 1369 1363 1365 1363 1360 1344 1349 1361
1449 1444 1439 1433 1427 1422 1417 1410 1404 1399 1394 1388 1380 1375 1369 1362 1361 1364 1351 1358 1364 1360
1449 1444 1439 1433 1427 1422 1417 1411 1406 1401 1396 1388 1381 1373 1369 1366 1364 1358 1356 1357 1353 1352
1448 1443 1439 1434 1428 1422 1417 1412 1406 1401 1395 1388 1382 1375 1371 1367 1361 1359 1357 1352 1355 1354